Home   Weather   Ostfildern   Past weeks

Flag for Germany Past Weather in Ostfildern, Baden-Württemberg, Germany — Yesterday and Last 2 Weeks

Now
54 °F

Sunny.


Feels Like: 54 °F
Forecast: 50 / 69 °F
Wind: 1 mph from North

Location: Stuttgart-Echterdingen

Current Time: Aug 20, 2017 at 8:20:08 am

Latest Report: Aug 20, 2017 at 7:50 am


Visibility: 10 mi

Pressure: 30.24 "Hg

Humidity: 88%

Dew Point: 50 °F

Location of OstfildernLocation

Past Weather in Ostfildern — Graph

°F

Ostfildern Temperature Yesterday

Maximum temperature yesterday: 70 °F (at 2:50 pm)
Minimum temperature yesterday: 55 °F (at 6:20 am)
Average temperature yesterday: 61 °F

High & Low Weather Summary for the Past Weeks

 TemperatureHumidityPressure
High84 °F (Aug 15, 1:20 pm)100% (Aug 10, 1:50 am)30.24 "Hg (Aug 10, 1:50 am)
Low50 °F (Aug 20, 5:50 am)40% (Aug 15, 1:50 pm)29.83 "Hg (Aug 8, 8:50 am)
Average65 °F78%30.08 "Hg
* Reported Aug 5 7:20 am — Aug 20 7:20 am, Ostfildern. Weather by CustomWeather, © 2017

Note: Actual official high and low records may vary slightly from our data, if they occured in-between our weather recording intervals... More about our weather records

Advertising

Ostfildern Weather History for the Previous 24 Hours

Scroll right to see more
 ConditionsComfort  
Time TempWeatherWind HumidityBarometerVisibility
7:20 am
Sun, Aug 20
54 °FSunny.2 mph94%30.24 "Hg10 mi
6:50 am52 °FSunny.2 mph88%30.21 "Hg10 mi
6:20 am50 °FPassing clouds.3 mph94%30.21 "HgN/A
5:50 am50 °FClear.1 mph94%30.21 "Hg10 mi
5:20 am52 °FClear.2 mph88%30.21 "Hg10 mi
4:50 am52 °FClear.5 mph88%30.21 "Hg10 mi
4:20 am52 °FPassing clouds.3 mph88%30.21 "HgN/A
3:50 am52 °FClear.1 mph88%30.21 "Hg10 mi
3:20 am52 °FClear.3 mph88%30.21 "Hg10 mi
2:50 am54 °FClear.5 mph82%30.21 "Hg10 mi
2:20 am54 °FClear.2 mph82%30.18 "Hg10 mi
1:50 am54 °FClear.2 mph82%30.21 "Hg10 mi
1:20 am52 °FClear.5 mph88%30.21 "Hg10 mi
12:50 am54 °FClear.3 mph82%30.21 "Hg10 mi
12:20 am54 °FPassing clouds.3 mph82%30.18 "HgN/A
11:50 pm
Sat, Aug 19
55 °FPassing clouds.5 mph77%30.18 "HgN/A
11:20 pm55 °FPassing clouds.3 mph82%30.18 "HgN/A
10:50 pm57 °FPassing clouds.2 mph72%30.18 "HgN/A
10:20 pm57 °FPassing clouds.2 mph72%30.18 "HgN/A
9:50 pm59 °FPassing clouds.3 mph68%30.18 "HgN/A
9:20 pm61 °FPassing clouds.2 mph63%30.15 "HgN/A
8:50 pm61 °FPassing clouds.7 mph63%30.15 "HgN/A
8:20 pm63 °FPassing clouds.8 mph59%30.15 "HgN/A
7:50 pm64 °FPassing clouds.9 mph60%30.15 "HgN/A
7:20 pm66 °FScattered clouds.9 mph60%30.12 "HgN/A
6:50 pm66 °FScattered clouds.9 mph60%30.12 "HgN/A
6:20 pm66 °FScattered clouds.8 mph60%30.12 "HgN/A
5:50 pm66 °FPartly sunny.8 mph60%30.12 "HgN/A
5:20 pm66 °FPartly sunny.9 mph60%30.12 "HgN/A
4:50 pm66 °FPartly sunny.13 mph60%30.12 "HgN/A
4:20 pm68 °FPartly sunny.10 mph56%30.12 "HgN/A
3:50 pm66 °FScattered clouds.10 mph64%30.12 "HgN/A
3:20 pm68 °FScattered clouds.7 mph56%30.12 "HgN/A
2:50 pm70 °FScattered clouds.7 mph57%30.12 "HgN/A
2:20 pm68 °FScattered clouds.3 mph56%30.12 "HgN/A
1:50 pm66 °FPartly sunny.3 mph60%30.12 "HgN/A
1:20 pm64 °FScattered clouds.6 mph64%30.12 "HgN/A
12:50 pm64 °FPartly sunny.10 mph68%30.15 "HgN/A
12:20 pm64 °FScattered clouds.3 mph64%30.12 "HgN/A
11:50 am64 °FScattered clouds.6 mph68%30.15 "HgN/A
11:20 am63 °FScattered clouds.5 mph77%30.12 "HgN/A
10:50 am59 °FPartly sunny.3 mph88%30.12 "HgN/A
10:20 am59 °FPartly sunny.5 mph88%30.15 "HgN/A
9:50 am57 °FScattered clouds.5 mph88%30.15 "HgN/A
9:20 am57 °FScattered clouds.5 mph88%30.12 "HgN/A
8:50 am55 °FPartly sunny.5 mph94%30.12 "HgN/A
8:20 am55 °FBroken clouds.5 mph94%30.12 "HgN/A
Weather by CustomWeather, © 2017

See weather overviewHow to use our weather pages